Flag for Ecuador Weather past 2 weeks in Quito, Ecuador

Now
64 °F

Partly sunny.


Feels Like: 64 °F
Forecast: 47 / 72 °F
Wind: 21 mph from South

Location: Latacunga Airport

Current Time: Oct 1, 2014 at 1:55:49 PM

Latest Report: Oct 1, 2014 at 1:00 PM


Visibility: N/A

Pressure: 30.42 "Hg

Humidity: 40%

Dew point: 39 °F

Location of QuitoLocation

Historic Weather in Quito — Graph

°F

Quito temperature yesterday

Maximum temperature yesterday: 66 °F (at 12:00 PM)
Minimum temperature yesterday: 45 °F (at 5:00 AM)
Average temperature yesterday: 56 °F

Past Weeks' High & Low Weather Summary

 TemperatureHumidityPressure
High72 °F (Sep 25, 3:00 PM)100% (Sep 16, 9:00 PM)30.51 "Hg (Sep 16, 9:00 PM)
Low36 °F (Sep 17, 4:00 AM)37% (Sep 30, 12:00 PM)30.27 "Hg (Sep 23, 4:00 PM)
Average55 °F81%30.41 "Hg
* Reported Sep 16 12:00 Noon — Oct 1 12:00 Noon, Quito, Weather by CustomWeather, © 2014

Note: Actual official high and low records may vary slightly from our data, if they occured in-between our weather recording intervals... More about our weather records

Advertising

Quito weather history for previous 24 hours

 ConditionsComfort  
Time TempWeatherWind HumidityBarometerVisibility
12:00 PM
Oct 1
59 °FPartly sunny.16 mph63%30.48 "HgN/A
11:00 AM59 °FPartly sunny.15 mph63%30.48 "HgN/A
10:00 AM57 °FPartly sunny.16 mph67%30.48 "HgN/A
9:00 AM59 °FPartly sunny.16 mph72%30.48 "HgN/A
8:00 AM52 °FPartly sunny.16 mph94%30.45 "HgN/A
7:00 AM50 °FPartly sunny.13 mph100%30.45 "HgN/A
6:00 AM48 °FPassing clouds.14 mph100%30.39 "HgN/A
5:00 AM48 °FPassing clouds.9 mph100%30.39 "HgN/A
4:00 AM48 °FPassing clouds.12 mph100%30.39 "HgN/A
3:00 AM50 °FPassing clouds.9 mph94%30.39 "HgN/A
2:00 AM50 °FPassing clouds.12 mph94%30.39 "HgN/A
1:00 AM50 °FPassing clouds.14 mph94%30.42 "HgN/A
12:00 AM52 °FPassing clouds.16 mph82%30.45 "HgN/A
11:00 PM
Sep 30
52 °FPassing clouds.15 mph82%30.45 "HgN/A
10:00 PM54 °FPassing clouds.14 mph77%30.45 "HgN/A
9:00 PM55 °FPassing clouds.14 mph67%30.45 "HgN/A
8:00 PM55 °FPassing clouds.13 mph63%30.42 "HgN/A
7:00 PM57 °FPassing clouds.10 mph55%30.39 "HgN/A
6:00 PM57 °FPassing clouds.10 mph48%30.36 "HgN/A
5:00 PM63 °FPassing clouds.15 mph42%30.36 "HgN/A
4:00 PM63 °FPassing clouds.16 mph39%30.33 "HgN/A
3:00 PM64 °FPassing clouds.12 mph37%30.36 "HgN/A
2:00 PM64 °FScattered clouds.14 mph40%30.39 "HgN/A
1:00 PM66 °FScattered clouds.16 mph37%30.42 "HgN/A
Weather by CustomWeather, © 2014

See weather overviewHow to use our weather pages